Powrót do katalogu

STARLINK-3595

AktywnyŁącznośćVLEO
NORAD 51894·PAYLOAD·🇺🇸 United States

Wystrzelony Mar 3, 2022 z Cape Canaveral Space Force Station

Loading…

Następne Przeloty (najbliższe 24 godziny)

TLE

ŚwieżeSource: CelesTrak SupGP

Epoka: Sep 15, 2026, 01:46 UTC

1 51894C 22022AU  26258.07409722 -.00022877  00000+0 -67589-3 0  2582
2 51894  53.1567 213.4353 0001551  94.9580  85.8738 15.34402917    10

Śledź STARLINK-3595 w czasie rzeczywistym z AllMySat

Download on the App Store